SWARM A

Last updated on Wed Sep 09 2026 00:03:35 GMT+0000 (Coordinated Universal Time)

1 39452U 13067B 26251.59605395 .00010713 00000+0 18623-3 0 9992 2 39452 87.3340 25.2464 0002276 97.0490 263.1029 15.50648091719176
UTC large
Height (km)
Speed (km/s)
/
Latitude / Longitude
Inclination (degrees)
Orbital Period (minutes)
Azimuth
Elevation
Range (km)
Doppler Factor

Next 0 passes for location: London (51.5072 / 0.1276)

No passes found over London.
SWARM A